TimeCST,TemperatureF,Dew PointF,Humidity,Sea Level PressureIn,VisibilityMPH,Wind Direction,Wind SpeedMPH,Gust SpeedMPH,PrecipitationIn,Events,Conditions,WindDirDegrees,DateUTC
12:53 AM,39.0,25.0,57,29.83,10.0,West,5.8,-,N/A,,Clear,260,2013-02-14 06:53:00
1:53 AM,36.0,24.1,62,29.84,10.0,South,5.8,-,N/A,,Partly Cloudy,190,2013-02-14 07:53:00
2:53 AM,36.0,25.0,64,29.86,10.0,Calm,Calm,-,N/A,,Overcast,0,2013-02-14 08:53:00
3:53 AM,42.1,30.9,65,29.86,10.0,WNW,12.7,-,0.00,Rain,Light Rain,300,2013-02-14 09:53:00
4:53 AM,39.9,30.0,68,29.89,10.0,NW,13.8,-,0.00,,Clear,310,2013-02-14 10:53:00
5:53 AM,39.0,28.9,67,29.91,10.0,NW,18.4,-,N/A,,Clear,320,2013-02-14 11:53:00
6:53 AM,37.9,28.9,70,29.94,10.0,NW,15.0,-,N/A,,Clear,310,2013-02-14 12:53:00
7:53 AM,39.0,28.9,67,29.97,10.0,NW,18.4,24.2,N/A,,Clear,320,2013-02-14 13:53:00
8:53 AM,41.0,30.0,65,30.01,10.0,NNW,11.5,-,N/A,,Clear,330,2013-02-14 14:53:00
9:53 AM,44.1,30.0,58,30.00,10.0,NNW,15.0,21.9,N/A,,Clear,330,2013-02-14 15:53:00
10:53 AM,46.9,28.0,48,30.02,10.0,NNW,17.3,-,N/A,,Clear,340,2013-02-14 16:53:00
11:53 AM,48.0,28.9,48,30.04,10.0,WNW,12.7,-,N/A,,Clear,300,2013-02-14 17:53:00
12:53 PM,48.9,28.9,46,30.03,10.0,NW,19.6,26.5,N/A,,Partly Cloudy,310,2013-02-14 18:53:00
1:53 PM,50.0,28.9,44,30.02,10.0,WNW,11.5,-,N/A,,Partly Cloudy,300,2013-02-14 19:53:00
2:53 PM,50.0,26.1,39,30.03,10.0,NW,18.4,23.0,N/A,,Partly Cloudy,320,2013-02-14 20:53:00
3:53 PM,48.0,24.1,39,30.06,10.0,NW,20.7,-,N/A,,Clear,320,2013-02-14 21:53:00
4:53 PM,46.0,21.9,39,30.08,10.0,NNW,23.0,31.1,N/A,,Mostly Cloudy,330,2013-02-14 22:53:00
5:53 PM,44.1,21.0,40,30.10,10.0,NW,12.7,-,N/A,,Scattered Clouds,320,2013-02-14 23:53:00
6:53 PM,39.0,21.0,49,30.11,10.0,WNW,8.1,-,N/A,,Mostly Cloudy,300,2013-02-15 00:53:00
7:53 PM,39.9,21.0,47,30.13,10.0,NW,9.2,-,N/A,,Overcast,320,2013-02-15 01:53:00
8:53 PM,37.0,19.9,50,30.14,10.0,WNW,10.4,-,N/A,,Clear,300,2013-02-15 02:53:00
9:53 PM,35.1,21.9,59,30.17,10.0,NNW,9.2,-,N/A,,Scattered Clouds,330,2013-02-15 03:53:00
10:53 PM,35.1,26.1,70,30.18,10.0,NNW,9.2,-,N/A,,Overcast,330,2013-02-15 04:53:00
11:32 PM,35.6,28.4,75,30.18,9.0,NNW,16.1,20.7,N/A,,Overcast,340,2013-02-15 05:32:00
11:53 PM,34.0,28.9,82,30.21,7.0,North,18.4,23.0,0.00,Snow,Light Snow,360,2013-02-15 05:53:00